Skip Page Navigation
NASA JPL Caltech
NASA Logo - Jet Propulsion Laboratory + View the NASA Portal
+ Center for Near-Earth Object Studies
JPL Home Earth Solar System Stars & Galaxies Technology
JPL Solar System Dynamics
BODIES ORBITS EPHEMERIDES TOOLS PHYSICAL DATA DISCOVERY FAQ SITE MAP
IMPORTANT: The SSD Announcement email list is now available. Major changes are coming in the near future, including possible hostname and/or URL changes. To be notified of such changes, subscribe to this email list.

Please visit this page for more details.


JPL Small-Body Database Browser
Search: [ help ]  
183783 (2004 BE27)
Classification: Main-belt Asteroid          SPK-ID: 2183783
Ephemeris | Orbit Diagram | Orbital Elements | Mission Design | Physical Parameters | Discovery Circumstances | Close-Approach Data ]

[ show orbit diagram ]
Orbital Elements at Epoch 2459000.5 (2020-May-31.0) TDB
Reference: JPL 17 (heliocentric ecliptic J2000)
 Element Value Uncertainty (1-sigma)   Units 
e .1928926509115204 3.4776e-08  
a 2.340630510636936 1.0471e-08 au
q 1.889140086635792 8.312e-08 au
i 1.102575030034899 4.8036e-06 deg
node 253.5577287957167 0.00026804 deg
peri 212.6648064394842 0.00026861 deg
M 220.8684412335865 1.5832e-05 deg
tp 2459505.999662167851
(2021-Oct-18.49966217)
5.8039e-05 TDB
period 1307.969809250469
3.58
8.7767e-06
2.403e-08
d
yr
n .2752357106822654 1.8469e-09 deg/d
Q 2.79212093463808 1.249e-08 au
  Orbit Determination Parameters
   # obs. used (total)      382  
   data-arc span      8623 days (23.61 yr)  
   first obs. used      1995-09-21  
   last obs. used      2019-05-01  
   planetary ephem.      DE431  
   SB-pert. ephem.      SB431-N16  
   condition code      0  
   norm. resid. RMS      .52364  
   source      ORB  
   producer      Otto Matic  
   solution date      2019-Jul-13 12:53:20  

Additional Information
 Earth MOID = .906079 au 
 Jupiter MOID = 2.34302 au 
 T_jup = 3.539 
[ show covariance matrix ]

Ephemeris | Orbit Diagram | Orbital Elements | Mission Design | Physical Parameters | Discovery Circumstances | Close-Approach Data ]

Physical Parameter Table
Parameter Symbol Value Units Sigma Reference Notes
absolute magnitude H 17.0   n/a MPO436908  

183783 (2004 BE27)          Discovered 2004-Jan-21 by LINEAR at Socorro
Reference: 20080420/Numbers.arcLast Updated: 2008-04-23

[ show close-approach data ]
Alternate Designations
 2004 BE27 = 1999 TH299 
Ephemeris | Orbit Diagram | Orbital Elements | Mission Design | Physical Parameters | Discovery Circumstances | Close-Approach Data ]
ABOUT SSD CREDITS/AWARDS PRIVACY/COPYRIGHT GLOSSARY LINKS
FirstGov 2020-May-30 09:16 UT
(server date/time)  
NASA Home Page
Site Manager:   Ryan S. Park
Webmaster  Alan B. Chamberlin